Hourly Weather Otolchicy

Today, 30 July, Friday

Time Temperature Precipitation Wind Pressure Humidity
00:00 +19°C° 0 mm 2 mps 744 mmHg 79%
01:00 +19°C° 0 mm 2 mps 744 mmHg 77%
02:00 +20°C° 0 mm 2 mps 744 mmHg 75%
03:00 +19°C° 0 mm 2 mps 744 mmHg 78%
04:00 +18°C° 0 mm 2 mps 744 mmHg 81%
05:00 +17°C° 0 mm 3 mps 744 mmHg 84%
06:00 +19°C° 0 mm 3 mps 744 mmHg 79%
07:00 +20°C° 0 mm 3 mps 744 mmHg 73%
08:00 +22°C° 0 mm 3 mps 744 mmHg 68%
09:00 +24°C° 0 mm 3 mps 744 mmHg 62%
10:00 +25°C° 0 mm 4 mps 744 mmHg 57%
11:00 +26°C° 0 mm 4 mps 744 mmHg 51%
12:00 +26°C° 0 mm 4 mps 744 mmHg 53%
13:00 +26°C° 0 mm 4 mps 743 mmHg 54%
14:00 +26°C° 0 mm 3 mps 743 mmHg 55%
15:00 +26°C° 0 mm 3 mps 743 mmHg 58%
16:00 +26°C° 0 mm 3 mps 743 mmHg 61%
17:00 +26°C° 0 mm 3 mps 743 mmHg 64%
18:00 +25°C° 0 mm 2 mps 743 mmHg 65%
19:00 +24°C° 0 mm 2 mps 743 mmHg 67%
20:00 +23°C° 0 mm 2 mps 743 mmHg 68%
21:00 +21°C° 0 mm 2 mps 743 mmHg 69%
22:00 +20°C° 0 mm 2 mps 743 mmHg 70%
23:00 +19°C° 0 mm 2 mps 743 mmHg 71%

Tomorrow, 31 July, Saturday

Time Temperature Precipitation Wind Pressure Humidity
00:00 +19°C° 0 mm 2 mps 743 mmHg 72%
01:00 +18°C° 0 mm 2 mps 743 mmHg 72%
02:00 +18°C° 0 mm 2 mps 743 mmHg 72%
03:00 +18°C° 0 mm 2 mps 743 mmHg 73%
04:00 +17°C° 0 mm 2 mps 743 mmHg 74%
05:00 +17°C° 0 mm 2 mps 743 mmHg 75%
06:00 +19°C° 0 mm 2 mps 743 mmHg 72%
07:00 +21°C° 0 mm 2 mps 743 mmHg 68%
08:00 +23°C° 0 mm 2 mps 743 mmHg 64%
09:00 +25°C° 0 mm 2 mps 743 mmHg 61%
10:00 +26°C° 0 mm 2 mps 743 mmHg 57%
11:00 +28°C° 0 mm 2 mps 743 mmHg 53%
12:00 +28°C° 0 mm 2 mps 743 mmHg 52%
13:00 +29°C° 0 mm 2 mps 743 mmHg 50%
14:00 +30°C° 0 mm 2 mps 742 mmHg 48%
15:00 +30°C° 0 mm 1 mps 742 mmHg 49%
16:00 +30°C° 0 mm 1 mps 742 mmHg 49%
17:00 +30°C° 0 mm 1 mps 741 mmHg 50%
18:00 +27°C° 8.8 mm 1 mps 742 mmHg 65%
19:00 +23°C° 8.8 mm 2 mps 742 mmHg 80%
20:00 +19°C° 8.8 mm 2 mps 742 mmHg 96%
21:00 +19°C° 2.6 mm 2 mps 742 mmHg 96%
22:00 +20°C° 2.6 mm 1 mps 742 mmHg 96%
23:00 +20°C° 2.6 mm 1 mps 742 mmHg 97%

Day after tomorrow, 1 August, Sunday

Time Temperature Precipitation Wind Pressure Humidity
00:00 +19°C° 0.3 mm 1 mps 742 mmHg 97%
01:00 +18°C° 0.3 mm 2 mps 742 mmHg 97%
02:00 +18°C° 0.3 mm 2 mps 743 mmHg 97%
03:00 +18°C° 0 mm 2 mps 743 mmHg 97%
04:00 +17°C° 0 mm 2 mps 743 mmHg 97%
05:00 +17°C° 0 mm 2 mps 743 mmHg 98%
06:00 +18°C° 0 mm 2 mps 743 mmHg 93%
07:00 +19°C° 0 mm 3 mps 743 mmHg 89%
08:00 +21°C° 0 mm 3 mps 743 mmHg 85%
09:00 +23°C° 0 mm 2 mps 744 mmHg 77%
10:00 +25°C° 0 mm 2 mps 744 mmHg 69%
11:00 +26°C° 0 mm 2 mps 744 mmHg 61%
12:00 +27°C° 0 mm 2 mps 743 mmHg 58%
13:00 +27°C° 0 mm 2 mps 743 mmHg 55%
14:00 +28°C° 0 mm 2 mps 743 mmHg 52%
15:00 +28°C° 0 mm 2 mps 743 mmHg 54%
16:00 +28°C° 0 mm 2 mps 742 mmHg 57%
17:00 +28°C° 0 mm 2 mps 742 mmHg 60%
18:00 +26°C° 0.1 mm 2 mps 741 mmHg 65%
19:00 +25°C° 0.1 mm 3 mps 741 mmHg 70%
20:00 +24°C° 0.1 mm 3 mps 741 mmHg 75%
21:00 +21°C° 0.5 mm 3 mps 741 mmHg 80%
22:00 +20°C° 0.5 mm 3 mps 741 mmHg 86%
23:00 +19°C° 0.5 mm 3 mps 741 mmHg 91%

2 August, Monday

Time Temperature Precipitation Wind Pressure Humidity
00:00 +19°C° 0.1 mm 3 mps 740 mmHg 93%
01:00 +18°C° 0.1 mm 2 mps 740 mmHg 95%
02:00 +18°C° 0.1 mm 2 mps 740 mmHg 97%
03:00 +18°C° 0.2 mm 2 mps 740 mmHg 97%
04:00 +18°C° 0.2 mm 3 mps 740 mmHg 97%
05:00 +17°C° 0.2 mm 3 mps 740 mmHg 97%
06:00 +17°C° 0.1 mm 3 mps 740 mmHg 95%
07:00 +17°C° 0.1 mm 4 mps 741 mmHg 94%
08:00 +17°C° 0.1 mm 4 mps 741 mmHg 93%
09:00 +17°C° 0 mm 4 mps 742 mmHg 90%
10:00 +17°C° 0 mm 4 mps 742 mmHg 87%
11:00 +18°C° 0 mm 4 mps 742 mmHg 84%
12:00 +17°C° 0.2 mm 4 mps 742 mmHg 86%
13:00 +17°C° 0.2 mm 4 mps 743 mmHg 88%
14:00 +17°C° 0.2 mm 4 mps 743 mmHg 89%
15:00 +17°C° 0 mm 4 mps 743 mmHg 87%
16:00 +18°C° 0 mm 4 mps 743 mmHg 85%
17:00 +19°C° 0 mm 4 mps 743 mmHg 82%
18:00 +18°C° 0.1 mm 4 mps 743 mmHg 84%
19:00 +18°C° 0.1 mm 4 mps 743 mmHg 87%
20:00 +17°C° 0.1 mm 3 mps 743 mmHg 89%
21:00 +17°C° 0 mm 3 mps 744 mmHg 90%
22:00 +16°C° 0 mm 3 mps 744 mmHg 90%
23:00 +16°C° 0 mm 3 mps 744 mmHg 91%

3 August, Tuesday

Time Temperature Precipitation Wind Pressure Humidity
00:00 +16°C° 0.1 mm 3 mps 744 mmHg 92%
01:00 +14°C° 0.1 mm 3 mps 745 mmHg 94%
02:00 +14°C° 0.1 mm 3 mps 745 mmHg 95%
03:00 +15°C° 0 mm 2 mps 745 mmHg 95%
04:00 +14°C° 0 mm 2 mps 745 mmHg 96%
05:00 +14°C° 0 mm 2 mps 746 mmHg 96%
06:00 +15°C° 0 mm 2 mps 746 mmHg 91%
07:00 +17°C° 0 mm 3 mps 746 mmHg 86%
08:00 +18°C° 0 mm 3 mps 746 mmHg 81%
09:00 +19°C° 0 mm 3 mps 747 mmHg 74%
10:00 +20°C° 0 mm 4 mps 747 mmHg 66%
11:00 +21°C° 0 mm 4 mps 747 mmHg 59%
12:00 +21°C° 0.1 mm 5 mps 747 mmHg 58%
13:00 +22°C° 0.1 mm 5 mps 747 mmHg 57%
14:00 +22°C° 0.1 mm 5 mps 747 mmHg 57%
15:00 +22°C° 0 mm 4 mps 747 mmHg 57%
16:00 +22°C° 0 mm 4 mps 747 mmHg 57%
17:00 +21°C° 0 mm 3 mps 747 mmHg 57%
18:00 +20°C° 0 mm 2 mps 747 mmHg 62%
19:00 +18°C° 0 mm 2 mps 747 mmHg 67%
20:00 +18°C° 0 mm 1 mps 748 mmHg 72%
21:00 +16°C° 0 mm 1 mps 748 mmHg 70%
22:00 +16°C° 0 mm 1 mps 748 mmHg 69%
23:00 +16°C° 0 mm 1 mps 748 mmHg 67%

4 August, Wednesday

Time Temperature Precipitation Wind Pressure Humidity
00:00 +16°C° 0 mm 1 mps 748 mmHg 67%
01:00 +16°C° 0 mm 1 mps 748 mmHg 67%
02:00 +16°C° 0 mm 1 mps 748 mmHg 66%
03:00 +15°C° 0 mm 1 mps 748 mmHg 68%
04:00 +15°C° 0 mm 1 mps 748 mmHg 70%
05:00 +15°C° 0 mm 1 mps 748 mmHg 71%
06:00 +16°C° 0 mm 1 mps 748 mmHg 70%
07:00 +17°C° 0 mm 2 mps 748 mmHg 68%
08:00 +19°C° 0 mm 2 mps 748 mmHg 67%
09:00 +20°C° 0 mm 2 mps 748 mmHg 63%
10:00 +21°C° 0 mm 3 mps 748 mmHg 59%
11:00 +24°C° 0 mm 3 mps 748 mmHg 56%
12:00 +24°C° 0 mm 3 mps 748 mmHg 53%
13:00 +25°C° 0 mm 3 mps 747 mmHg 51%
14:00 +26°C° 0 mm 3 mps 747 mmHg 49%
15:00 +25°C° 0 mm 3 mps 747 mmHg 54%
16:00 +24°C° 0 mm 3 mps 747 mmHg 58%
17:00 +23°C° 0 mm 2 mps 746 mmHg 63%
18:00 +21°C° 0.1 mm 2 mps 746 mmHg 68%
19:00 +20°C° 0.1 mm 2 mps 746 mmHg 73%
20:00 +19°C° 0.1 mm 2 mps 746 mmHg 77%
21:00 +18°C° 0 mm 2 mps 746 mmHg 80%
22:00 +18°C° 0 mm 3 mps 746 mmHg 82%
23:00 +17°C° 0 mm 3 mps 746 mmHg 85%
Show more